Simultaneous Nadir Overpasses (SNOs) Predictions

Prediction of SNOs between FY3D and TERRA Satellite Orbit:

Table of predicted SNOs for the next 14.0 days since TLE Epoch: 6/10/2023
Index Date (FY3D) Time (FY3D) Lat,Lon (FY3D) SZA (FY3D ) Date (TERRA) Time (TERRA) Lat,Lon (TERRA) SZA (TERRA ) Distance(km) Time Diff (sec)
1 06/11/2023 13:04:21 -73.95, 162.85 129.23 06/11/2023 13:05:31 -73.81, 164.22 129.38 45.20 70
2 06/11/2023 13:54:58 73.50, -28.75 50.32 06/11/2023 13:54:58 73.49, -28.79 50.30 1.83 0
3 06/11/2023 14:45:38 -73.24, 139.17 129.95 06/11/2023 14:44:26 -73.25, 138.38 129.94 25.44 72
4 06/14/2023 01:08:22 73.61, 162.68 50.28 06/14/2023 01:09:33 73.61, 162.78 50.27 3.15 71
5 06/14/2023 01:59:05 -73.50, -29.74 129.84 06/14/2023 01:58:59 -73.48, -29.83 129.86 3.58 6
6 06/14/2023 02:49:38 72.84, 139.04 49.51 06/14/2023 02:48:31 72.89, 136.64 49.55 78.89 67
7 06/16/2023 13:12:27 -73.57, 161.79 129.88 06/16/2023 13:13:33 -73.58, 161.70 129.86 3.22 66
8 06/16/2023 14:03:12 73.51, -30.76 50.07 06/16/2023 14:02:55 73.51, -30.79 50.07 0.74 17
9 06/19/2023 01:16:35 73.59, 160.75 50.08 06/19/2023 01:17:30 73.58, 160.68 50.07 2.15 55
10 06/19/2023 02:07:19 -73.52, -31.78 129.99 06/19/2023 02:06:55 -73.52, -31.79 129.99 0.15 24
11 06/21/2023 13:20:42 -73.61, 159.72 129.93 06/21/2023 13:21:29 -73.63, 159.76 129.91 2.92 47
12 06/21/2023 14:11:27 73.55, -32.84 50.02 06/21/2023 14:10:51 73.54, -32.76 50.01 2.64 36
13 06/24/2023 01:24:50 73.64, 158.65 50.13 06/24/2023 01:25:25 73.62, 158.73 50.11 3.16 35
14 06/24/2023 02:15:33 -73.52, -33.77 129.99 06/24/2023 02:14:51 -73.52, -33.83 129.99 1.84 42



Historial Predications of SNOs between FY3D and TERRA
